When you browse on this site, cookies collect data to enhance your experience and personalize the content and advertising you see.
Visit our Privacy Policy to learn more. By continuing to use the site, you agree to this use of cookies and data.
  • In United Kingdom
  • List of Countries
  • For 7 days
  • Water Temperature
  • Satellite Maps
  • Weather Map
  • Weather Widgets
  • user-avatar
    Login

    Hourly Weather Zdzieszowice

    Today, 19 June, Wednesday

    Time Temperature Precipitation Wind Pressure Humidity
    00:00 +19°C° 0 mm 1 mps 746 mmHg 89%
    01:00 +19°C° 0 mm 1 mps 745 mmHg 90%
    02:00 +18°C° 0 mm 1 mps 745 mmHg 91%
    03:00 +18°C° 0 mm 1 mps 745 mmHg 92%
    04:00 +18°C° 0 mm 1 mps 745 mmHg 93%
    05:00 +20°C° 0 mm 1 mps 745 mmHg 87%
    06:00 +21°C° 0 mm 1 mps 745 mmHg 82%
    07:00 +24°C° 0 mm 1 mps 745 mmHg 74%
    08:00 +25°C° 0 mm 1 mps 744 mmHg 67%
    09:00 +27°C° 0 mm 1 mps 744 mmHg 60%
    10:00 +29°C° 0 mm 1 mps 744 mmHg 54%
    11:00 +29°C° 0 mm 2 mps 744 mmHg 51%
    12:00 +30°C° 0 mm 2 mps 744 mmHg 48%
    13:00 +31°C° 0 mm 2 mps 744 mmHg 45%
    14:00 +30°C° 0 mm 2 mps 743 mmHg 47%
    15:00 +30°C° 0 mm 3 mps 743 mmHg 50%
    16:00 +30°C° 0 mm 3 mps 743 mmHg 52%
    17:00 +28°C° 0 mm 2 mps 742 mmHg 58%
    18:00 +27°C° 0 mm 2 mps 742 mmHg 65%
    19:00 +26°C° 0 mm 2 mps 742 mmHg 71%
    20:00 +24°C° 0.1 mm 2 mps 742 mmHg 72%
    21:00 +23°C° 0.1 mm 2 mps 742 mmHg 73%
    22:00 +21°C° 0.1 mm 2 mps 743 mmHg 74%
    23:00 +21°C° 0 mm 2 mps 742 mmHg 75%

    Tomorrow, 20 June, Thursday

    Time Temperature Precipitation Wind Pressure Humidity
    00:00 +20°C° 0 mm 2 mps 742 mmHg 77%
    01:00 +19°C° 0 mm 2 mps 742 mmHg 79%
    02:00 +19°C° 0 mm 2 mps 742 mmHg 80%
    03:00 +20°C° 0 mm 1 mps 742 mmHg 82%
    04:00 +20°C° 0 mm 1 mps 742 mmHg 84%
    05:00 +21°C° 0 mm 1 mps 742 mmHg 79%
    06:00 +23°C° 0 mm 1 mps 742 mmHg 74%
    07:00 +24°C° 0 mm 1 mps 742 mmHg 70%
    08:00 +26°C° 0 mm 1 mps 742 mmHg 64%
    09:00 +27°C° 0 mm 1 mps 742 mmHg 58%
    10:00 +29°C° 0 mm 1 mps 742 mmHg 53%
    11:00 +30°C° 0 mm 1 mps 742 mmHg 48%
    12:00 +31°C° 0 mm 1 mps 742 mmHg 44%
    13:00 +32°C° 0 mm 1 mps 742 mmHg 40%
    14:00 +32°C° 0 mm 1 mps 742 mmHg 40%
    15:00 +32°C° 0 mm 1 mps 742 mmHg 39%
    16:00 +31°C° 0 mm 1 mps 742 mmHg 39%
    17:00 +30°C° 0 mm 1 mps 742 mmHg 45%
    18:00 +29°C° 0 mm 1 mps 742 mmHg 52%
    19:00 +27°C° 0 mm 1 mps 742 mmHg 58%
    20:00 +25°C° 0.5 mm 2 mps 742 mmHg 68%
    21:00 +21°C° 0.5 mm 2 mps 743 mmHg 77%
    22:00 +19°C° 0.5 mm 3 mps 743 mmHg 87%
    23:00 +18°C° 0.5 mm 3 mps 743 mmHg 89%

    Day after tomorrow, 21 June, Friday

    Time Temperature Precipitation Wind Pressure Humidity
    00:00 +18°C° 0.5 mm 2 mps 743 mmHg 91%
    01:00 +18°C° 0.5 mm 2 mps 744 mmHg 92%
    02:00 +18°C° 0 mm 2 mps 744 mmHg 92%
    03:00 +18°C° 0 mm 1 mps 744 mmHg 93%
    04:00 +18°C° 0 mm 1 mps 744 mmHg 93%
    05:00 +20°C° 0 mm 1 mps 744 mmHg 90%
    06:00 +20°C° 0 mm 2 mps 744 mmHg 87%
    07:00 +21°C° 0 mm 2 mps 745 mmHg 84%
    08:00 +22°C° 0.5 mm 3 mps 745 mmHg 80%
    09:00 +24°C° 0.5 mm 3 mps 745 mmHg 75%
    10:00 +26°C° 0.5 mm 4 mps 745 mmHg 71%
    11:00 +26°C° 0.6 mm 4 mps 745 mmHg 69%
    12:00 +26°C° 0.6 mm 4 mps 745 mmHg 67%
    13:00 +27°C° 0.6 mm 4 mps 745 mmHg 66%
    14:00 +27°C° 0.6 mm 4 mps 745 mmHg 65%
    15:00 +27°C° 0.6 mm 4 mps 745 mmHg 65%
    16:00 +27°C° 0.6 mm 4 mps 745 mmHg 65%
    17:00 +26°C° 0.5 mm 3 mps 745 mmHg 70%
    18:00 +25°C° 0.5 mm 3 mps 745 mmHg 76%
    19:00 +24°C° 0.5 mm 2 mps 745 mmHg 81%
    20:00 +23°C° 0.4 mm 2 mps 746 mmHg 85%
    21:00 +20°C° 0.4 mm 2 mps 746 mmHg 88%
    22:00 +19°C° 0.4 mm 2 mps 746 mmHg 92%
    23:00 +19°C° 0.2 mm 2 mps 747 mmHg 93%

    22 June, Saturday

    Time Temperature Precipitation Wind Pressure Humidity
    00:00 +18°C° 0.2 mm 2 mps 747 mmHg 95%
    01:00 +18°C° 0.2 mm 2 mps 747 mmHg 96%
    02:00 +18°C° 0 mm 3 mps 747 mmHg 97%
    03:00 +18°C° 0 mm 3 mps 747 mmHg 97%
    04:00 +17°C° 0 mm 3 mps 747 mmHg 97%
    05:00 +18°C° 0 mm 3 mps 747 mmHg 93%
    06:00 +20°C° 0 mm 3 mps 748 mmHg 90%
    07:00 +21°C° 0 mm 3 mps 748 mmHg 86%
    08:00 +21°C° 0.3 mm 4 mps 748 mmHg 81%
    09:00 +22°C° 0.3 mm 5 mps 748 mmHg 76%
    10:00 +23°C° 0.3 mm 5 mps 748 mmHg 71%
    11:00 +25°C° 0.8 mm 5 mps 748 mmHg 69%
    12:00 +25°C° 0.8 mm 5 mps 747 mmHg 66%
    13:00 +26°C° 0.8 mm 5 mps 747 mmHg 63%
    14:00 +26°C° 0.5 mm 5 mps 747 mmHg 64%
    15:00 +25°C° 0.5 mm 5 mps 747 mmHg 66%
    16:00 +25°C° 0.5 mm 4 mps 746 mmHg 68%
    17:00 +23°C° 0.4 mm 4 mps 746 mmHg 71%
    18:00 +22°C° 0.4 mm 3 mps 747 mmHg 75%
    19:00 +21°C° 0.4 mm 3 mps 747 mmHg 79%
    20:00 +21°C° 0.1 mm 3 mps 747 mmHg 78%
    21:00 +20°C° 0.1 mm 3 mps 747 mmHg 77%
    22:00 +20°C° 0.1 mm 3 mps 747 mmHg 76%
    23:00 +19°C° 0.1 mm 3 mps 747 mmHg 77%

    23 June, Sunday

    Time Temperature Precipitation Wind Pressure Humidity
    00:00 +19°C° 0.1 mm 3 mps 747 mmHg 79%
    01:00 +19°C° 0.1 mm 3 mps 747 mmHg 80%
    02:00 +18°C° 0.2 mm 3 mps 744 mmHg 97%
    03:00 +18°C° 0.2 mm 3 mps 744 mmHg 97%
    04:00 +18°C° 0.2 mm 4 mps 744 mmHg 97%
    05:00 +17°C° 0.5 mm 4 mps 744 mmHg 97%
    06:00 +17°C° 0.5 mm 4 mps 745 mmHg 97%
    07:00 +15°C° 0.5 mm 4 mps 745 mmHg 96%
    08:00 +15°C° 0.6 mm 5 mps 745 mmHg 96%
    09:00 +14°C° 0.6 mm 5 mps 745 mmHg 96%
    10:00 +14°C° 0.6 mm 6 mps 745 mmHg 96%
    11:00 +14°C° 0.3 mm 6 mps 746 mmHg 95%
    12:00 +14°C° 0.3 mm 6 mps 746 mmHg 95%
    13:00 +14°C° 0.3 mm 6 mps 746 mmHg 95%
    14:00 +14°C° 0.1 mm 6 mps 746 mmHg 93%
    15:00 +15°C° 0.1 mm 6 mps 747 mmHg 92%
    16:00 +15°C° 0.1 mm 6 mps 747 mmHg 91%
    17:00 +14°C° 0.1 mm 6 mps 747 mmHg 91%
    18:00 +14°C° 0.1 mm 5 mps 748 mmHg 91%
    19:00 +13°C° 0.1 mm 5 mps 748 mmHg 91%
    20:00 +13°C° 0 mm 4 mps 748 mmHg 91%
    21:00 +13°C° 0 mm 4 mps 749 mmHg 90%
    22:00 +13°C° 0 mm 3 mps 749 mmHg 90%
    23:00 +13°C° 0.1 mm 3 mps 749 mmHg 89%

    24 June, Monday

    Time Temperature Precipitation Wind Pressure Humidity
    00:00 +13°C° 0.1 mm 3 mps 750 mmHg 88%
    01:00 +13°C° 0.1 mm 3 mps 750 mmHg 88%
    02:00 +13°C° 0 mm 3 mps 750 mmHg 87%
    03:00 +13°C° 0 mm 3 mps 750 mmHg 87%
    04:00 +14°C° 0 mm 2 mps 751 mmHg 87%
    05:00 +13°C° 0 mm 3 mps 751 mmHg 85%
    06:00 +14°C° 0 mm 3 mps 751 mmHg 83%
    07:00 +16°C° 0 mm 3 mps 752 mmHg 81%
    08:00 +18°C° 0 mm 3 mps 752 mmHg 73%
    09:00 +19°C° 0 mm 4 mps 752 mmHg 65%
    10:00 +21°C° 0 mm 4 mps 752 mmHg 56%
    11:00 +21°C° 0 mm 4 mps 752 mmHg 52%
    12:00 +22°C° 0 mm 4 mps 752 mmHg 48%
    13:00 +23°C° 0 mm 4 mps 752 mmHg 44%
    14:00 +23°C° 0 mm 4 mps 752 mmHg 45%
    15:00 +23°C° 0 mm 4 mps 752 mmHg 45%
    16:00 +23°C° 0 mm 4 mps 752 mmHg 45%
    17:00 +22°C° 0 mm 3 mps 752 mmHg 52%
    18:00 +20°C° 0 mm 2 mps 752 mmHg 59%
    19:00 +19°C° 0 mm 2 mps 752 mmHg 66%
    20:00 +19°C° 0 mm 1 mps 752 mmHg 69%
    21:00 +16°C° 0 mm 1 mps 753 mmHg 73%
    22:00 +15°C° 0 mm 1 mps 753 mmHg 76%
    23:00 +14°C° 0 mm 1 mps 753 mmHg 78%
    Show more